Flag for U.S.A. Weather past 2 weeks in Escondido, California, U.S.A.

Now
88 °F

Sunny.


Feels Like: 86 °F
Forecast: 64 / 90 °F
Wind: 14 mph from Northwest

Location: Ramona Airport

Current Time: Aug 4, 2015 at 5:42:14 PM

Latest Report: Aug 4, 2015 at 4:53 PM


Visibility: 10 mi

Pressure: 29.88 "Hg

Humidity: 34%

Dew point: 56 °F

Location of EscondidoLocation

Historic Weather in Escondido — Graph

°F

Escondido temperature yesterday

Maximum temperature yesterday: 88 °F (at 1:53 PM)
Minimum temperature yesterday: 60 °F (at 2:53 AM)
Average temperature yesterday: 71 °F

Past Weeks' High & Low Weather Summary

 TemperatureHumidityPressure
High93 °F (Aug 4, 2:53 PM)100% (Jul 24, 6:53 AM)30.05 "Hg (Jul 24, 6:53 AM)
Low56 °F (Jul 28, 4:53 AM)26% (Jul 25, 11:53 AM)29.82 "Hg (Jul 28, 4:53 PM)
Average72 °F71%29.92 "Hg
* Reported Jul 20 3:53 PM — Aug 4 3:53 PM, Escondido, Weather by CustomWeather, © 2015

Note: Actual official high and low records may vary slightly from our data, if they occured in-between our weather recording intervals... More about our weather records

Advertising

Escondido weather history for previous 24 hours

 ConditionsComfort  
Time TempWeatherWind HumidityBarometerVisibility
3:53 PM
Tue, Aug 4
89 °FSunny.14 mph34%29.88 "Hg10 mi
2:53 PM93 °FSunny.10 mph30%29.88 "Hg10 mi
1:53 PM92 °FSunny.7 mph29%29.89 "Hg10 mi
12:53 PM90 °FSunny.9 mph33%29.90 "Hg10 mi
11:53 AM89 °FSunny.10 mph38%29.91 "Hg10 mi
10:53 AM84 °FSunny.9 mph46%29.92 "Hg10 mi
9:53 AM84 °FSunny.7 mph43%29.91 "Hg10 mi
8:53 AM77 °FSunny.5 mph54%29.90 "Hg10 mi
7:53 AM68 °FSunny.No wind73%29.90 "Hg10 mi
6:53 AM61 °FClear.No wind90%29.90 "Hg9 mi
5:53 AM57 °FClear.No wind90%29.88 "Hg9 mi
4:53 AM59 °FClear.No wind93%29.87 "Hg9 mi
3:53 AM59 °FClear.No wind90%29.87 "Hg10 mi
2:53 AM59 °FClear.No wind90%29.85 "Hg9 mi
1:53 AM60 °FClear.No wind90%29.86 "Hg8 mi
12:53 AM62 °FClear.No wind86%29.87 "Hg10 mi
11:53 PM
Mon, Aug 3
62 °FClear.5 mph90%29.88 "Hg10 mi
10:53 PM63 °FClear.6 mph87%29.88 "Hg10 mi
9:53 PM67 °FClear.No wind81%29.88 "Hg10 mi
8:53 PM69 °FClear.3 mph76%29.88 "Hg10 mi
7:53 PM71 °FSunny.5 mph73%29.87 "Hg10 mi
6:53 PM77 °FSunny.10 mph58%29.84 "Hg10 mi
5:53 PM82 °FSunny.10 mph49%29.84 "Hg10 mi
Weather by CustomWeather, © 2015

See weather overviewHow to use our weather pages